Regional Weather Roundup
Issued by NWS State College, PA

Current Version | Previous Version | Text Only | Print | Product List | Glossary On
Versions: 1 2 3 4 5 6 7 8 9 10 11 12 13 14 15 16 17 18 19 20 21 22 23 24 25 26 27 28 29 30 31 32 33 34 35 36 37 38 39 40 41 42 43 44 45 46 47 48 49 50
000
ASUS41 KCTP 230410
RWRCTP

REGIONAL WEATHER ROUNDUP
NATIONAL WEATHER SERVICE STATE COLLEGE PA
1100 PM EST SAT NOV 22 2014

Note: "fair" indicates few or no clouds below 12,000 feet with no
significant weather and/or obstructions to visibility.

* = STATION THAT DOES NOT REPORT PRECIPITATION /E.G. RAIN...SNOW...ETC/
    THUNDER OR FOG.

PAZ002>004-007>009-013>016-020>023-029>032-230500-
WESTERN PENNSYLVANIA

CITY           SKY/WX    TMP DP  RH WIND       PRES   REMARKS
ERIE           CLOUDY    48  32  53 SW18G31   30.01R
MEADVILLE      CLOUDY    44  32  62 S8G16     30.04S
FRANKLIN*      CLOUDY    43  34  70 SW10G16   30.08R
NEW CASTLE       N/A     42  34  73 CALM      30.09S
BEAVER COUNTY  NOT AVBL
BUTLER*        CLOUDY    45  30  57 S6        30.11S
PITTSBURGH INT CLOUDY    50  30  46 S8        30.09F
PITTSBURGH     CLOUDY    50  24  36 S12       30.09F
INDIANA*       CLOUDY    46  32  57 SW6       30.15S
LATROBE        CLOUDY    45  32  61 SW8       30.13F
WASHINGTON CO* MOCLDY    50  28  43 S5        30.11F
$$

PAZ004>006-010>012-017>019-024>028-033>037-041-042-045-046-049>053-230500-
CENTRAL PENNSYLVANIA

CITY           SKY/WX    TMP DP  RH WIND       PRES   REMARKS
BRADFORD       CLOUDY    40  34  79 VRB7      30.05S
DUBOIS         CLOUDY    43  34  70 SW10      30.08S
CLEARFIELD     CLOUDY    35  32  88 CALM      30.11S
JOHNSTOWN      CLOUDY    47  29  49 SW8       30.12F
ALTOONA        MOCLDY    39  26  59 SW6       30.14F
STATE COLLEGE  CLOUDY    34  26  73 CALM      30.13F
WILLIAMSPORT   CLOUDY    33  28  81 W3        30.16F
SELINSGROVE    MOCLDY    38  17  42 S5        30.19S
FT INDIANTOWN  MOCLDY    31  22  67 VRB1      30.22R
CAPITAL CITY   MOCLDY    34  21  59 NW3       30.22R
HARRISBURG     MOCLDY    33  22  63 E7        30.21R
YORK           MOCLDY    43  17  35 SW8G17    30.21S
$$

PAZ038>040-043-044-047-048-054-055-060>062-067>071-230500-
EASTERN PENNSYLVANIA

CITY           SKY/WX    TMP DP  RH WIND       PRES   REMARKS
SCRANTON       CLOUDY    38  17  42 S10       30.15S
MOUNT POCONO   CLOUDY    38  15  39 W13       30.13S
ALLENTOWN      CLOUDY    38  20  48 W5        30.21F
QUAKERTOWN*    CLOUDY    39  21  48 SW6       30.22S
READING        PTCLDY    41  21  44 SW3       30.22R
LANCASTER      MOCLDY    34  23  64 CALM      30.23R
COATESVILLE    PTCLDY    39  23  52 SW3       30.23R
POTTSTOWN      PTCLDY    38  21  50 CALM      30.24S
BLUE BELL      MOCLDY    43  23  45 SW3       30.23S
DOYLESTOWN     CLOUDY    41  20  43 SW8       30.21F
WILLOW GROVE   NOT AVBL
NORTH PHILA    CLOUDY    44  21  40 SW13      30.26S
PHILADELPHIA   MOCLDY    42  23  46 S13       30.26F
$$


USA.gov is the U.S. government's official web portal to all federal, state and local government web resources and services.